Dewpoint
56 56 55 55 55 55 55 55 55 55 55 55 55 55 55 55 56 56 56 56 57 57 57 56 57 57 57 57 57 58 58 55 54 53 52 47 55 59 66 65 67 76 76 69 67 67 65 63 65 70 68 68 68 67 68 69 68 66 59 57 54 57 57 60 59 60 61 60 62 64 65 64 63 66 67 69 67 69 67 67 69 69 69 70 70 69 68 68
55 56 55 54 54 55 55 55 55 55 54 55 55 55 55 55 55 55 56 56 56 56 56 56 57 57 57 57 58 58 57 55 53 53 51 54 63 65 69 67 66 77 74 63 63 62 60 59 64 69 67 66 71 66 67 65 69 61 58 57 54 58 58 63 63 62 62 61 62 63 64 64 63 66 67 65 64 67 65 67 68 66 68 69 70 68 68 67
54 55 55 54 54 55 55 55 54 54 54 54 54 55 55 54 55 55 55 56 56 56 56 57 57 57 57 57 57 58 56 53 53 51 48 64 68 65 69 67 67 76 67 62 61 59 58 58 63 67 66 65 67 64 66 65 65 64 59 55 57 60 61 63 65 64 64 65 63 63 64 65 65 66 68 65 63 66 64 64 66 65 66 67 69 68 66 66
54 54 54 54 54 54 54 54 54 54 54 54 54 54 54 54 54 55 55 55 55 56 56 57 57 57 57 57 58 57 54 52 47 44 48 71 65 67 71 69 68 74 67 62 58 57 57 59 62 66 65 63 64 68 64 66 63 64 60 57 58 62 60 63 64 65 65 66 63 63 65 64 65 66 66 66 63 64 65 66 65 64 65 66 68 70 66 66
55 55 55 54 55 54 54 54 54 53 53 53 54 54 54 54 54 54 55 55 55 56 56 56 56 57 57 57 58 56 53 34 41 44 59 71 68 66 71 72 71 70 64 62 57 56 57 59 62 65 65 62 65 65 63 66 66 63 60 60 60 61 60 63 64 65 65 66 65 64 63 62 67 66 65 65 62 62 64 66 67 66 66 65 68 69 66 65
55 54 55 55 54 54 54 53 53 53 53 53 53 54 53 54 54 54 54 55 55 56 56 56 56 57 57 57 56 55 45 31 38 37 76 74 71 66 71 73 72 64 60 61 57 54 55 58 62 63 62 62 63 61 64 64 66 60 61 62 62 62 61 65 65 66 65 64 62 63 64 66 65 64 65 65 64 66 66 67 68 67 66 66 68 67 65 64
55 55 55 55 55 54 53 53 53 53 52 53 53 53 53 53 53 54 54 54 55 55 55 56 57 57 57 58 55 53 45 30 44 43 73 73 71 69 74 73 72 58 56 58 59 53 52 56 61 62 62 62 63 62 62 66 65 61 59 62 62 65 63 64 63 66 65 64 63 64 66 64 65 62 66 64 65 68 67 69 68 67 66 67 66 66 65 64
54 54 54 54 54 53 53 53 53 53 53 53 53 53 53 53 53 54 54 54 54 55 55 56 57 57 58 54 52 49 47 40 39 66 73 71 68 72 74 70 64 55 55 55 58 56 52 55 60 63 63 60 64 61 65 62 65 61 60 62 63 65 64 64 64 64 65 66 66 65 63 63 64 64 66 64 66 68 68 69 68 67 68 68 66 65 65 63
55 55 54 54 53 53 53 52 52 53 53 53 54 53 53 53 54 55 55 55 55 55 56 56 57 57 58 55 51 39 32 43 47 69 69 65 64 68 66 65 60 55 54 53 56 54 52 56 58 60 61 61 64 61 64 60 56 62 61 63 63 64 65 64 65 65 66 66 65 64 64 64 64 67 64 66 66 67 68 67 68 69 67 67 66 65 65 63
54 54 54 54 54 53 54 54 53 53 53 54 54 54 53 53 54 54 55 55 55 55 56 57 58 58 55 52 49 23 25 50 66 67 64 61 64 63 58 59 59 55 51 50 50 51 50 55 58 60 62 62 63 61 65 60 58 64 64 63 62 62 63 65 64 65 65 65 66 63 63 64 65 64 60 66 66 68 68 67 68 67 67 66 66 65 64 63
55 55 55 55 54 55 53 54 53 53 53 54 54 53 53 53 54 55 55 56 56 56 56 57 58 58 54 53 42 21 31 55 62 63 60 61 58 56 51 56 57 53 48 45 47 49 49 55 58 60 60 60 61 62 62 63 65 65 64 63 63 63 64 65 65 65 64 64 65 64 63 64 65 64 62 64 66 68 67 67 66 66 66 66 66 65 65 64
55 55 55 55 55 55 54 54 53 53 53 54 53 53 53 54 55 55 56 56 56 57 56 57 58 56 53 52 48 30 39 56 59 59 59 58 51 51 48 53 54 49 48 45 46 49 50 53 59 58 57 62 60 65 63 63 63 64 64 60 60 62 61 65 64 65 65 63 65 64 61 61 63 61 64 66 67 67 66 66 66 66 66 67 67 68 66 65
56 56 55 56 56 56 54 54 54 54 54 54 53 53 54 54 55 56 56 56 57 57 58 58 58 56 53 44 46 45 41 40 49 54 55 55 50 48 45 50 51 48 46 47 50 51 52 54 58 57 59 59 64 55 63 60 62 61 63 61 60 57 57 63 64 65 63 64 65 64 53 56 61 63 65 67 67 67 64 64 65 66 65 66 66 66 66 65
56 56 56 56 56 55 54 54 54 54 54 55 55 54 54 55 55 56 57 57 58 58 58 59 59 55 52 45 44 44 45 43 37 50 51 53 51 49 45 46 49 48 49 52 53 54 54 55 56 55 61 58 59 64 62 64 65 58 60 61 55 50 51 62 63 64 62 65 64 63 54 54 61 63 65 66 67 66 63 64 65 66 64 66 66 65 65 63
55 56 56 56 56 55 55 55 55 55 55 55 55 55 54 54 55 56 57 58 58 58 58 59 56 53 49 44 49 48 63 53 37 45 53 50 50 48 45 45 46 46 47 50 52 53 55 57 57 54 55 61 62 60 58 60 60 60 51 49 54 50 50 60 64 62 58 64 66 62 53 57 60 62 65 66 66 66 64 65 64 65 64 64 64 64 63 62
56 56 56 56 56 56 55 55 55 55 55 55 55 54 54 55 56 56 57 58 58 57 57 56 54 53 48 35 33 53 44 50 48 45 53 49 49 47 46 45 46 45 45 45 47 49 49 53 54 53 59 58 59 56 55 52 53 58 51 51 52 52 52 57 61 62 63 64 64 61 54 59 59 63 64 65 65 65 66 65 65 65 62 63 65 62 61 61
56 56 56 56 56 56 55 55 55 55 55 54 54 54 54 55 56 57 58 59 58 58 56 51 52 53 40 39 45 39 39 40 40 45 48 49 49 47 45 46 44 43 44 44 44 46 49 52 54 51 51 54 57 56 49 48 50 51 52 49 55 51 54 53 57 60 62 60 58 59 58 59 60 62 64 65 66 65 65 64 64 64 61 64 64 61 60 60
56 56 56 56 56 56 55 55 54 54 54 54 53 54 53 56 57 58 56 59 57 55 56 56 52 48 43 44 37 37 39 36 40 45 46 48 49 47 47 48 47 43 42 41 42 44 49 51 50 47 49 50 50 51 47 45 46 48 51 49 51 52 56 53 55 56 58 59 58 58 57 58 60 62 63 65 66 65 65 65 64 64 64 60 60 59 59 57
57 57 56 56 56 56 55 54 54 54 54 54 54 54 55 56 57 53 49 53 52 45 36 45 45 31 15 27 39 39 41 35 39 46 45 47 49 48 49 51 50 43 41 42 47 45 49 50 48 47 45 46 47 49 48 48 49 49 51 50 53 49 52 54 55 56 57 56 56 58 57 59 59 61 63 64 65 65 65 66 66 65 64 59 57 57 56 56
57 56 56 55 56 55 54 54 54 53 54 53 50 50 50 48 50 50 51 50 50 43 34 39 42 40 35 29 35 40 35 40 42 47 48 48 49 48 48 50 51 46 45 44 49 49 49 47 45 44 45 46 47 50 49 49 49 52 57 56 53 52 54 59 53 54 55 54 55 56 58 59 59 59 62 64 66 65 64 64 64 63 62 58 55 55 56 55
56 56 55 55 55 55 54 54 54 53 53 51 50 49 42 43 42 42 46 47 47 47 45 44 43 39 33 33 34 33 29 32 38 48 48 51 50 49 48 50 52 50 50 49 48 50 49 46 45 46 46 47 46 47 50 50 50 53 53 53 53 51 50 54 53 52 53 53 57 57 58 59 59 59 61 64 63 62 63 63 65 62 61 60 55 54 55 55
56 56 55 55 55 54 53 53 53 53 53 51 50 47 46 45 42 41 41 37 41 46 45 43 43 41 41 39 39 37 35 27 37 46 48 49 49 48 49 50 48 48 48 47 47 46 46 45 46 46 46 46 45 45 46 47 50 52 49 52 49 51 51 53 52 54 56 55 56 58 54 58 57 61 63 64 63 65 65 66 66 63 62 61 58 54 53 53
56 56 55 55 55 54 53 53 52 53 50 49 47 47 46 45 44 43 40 39 38 40 44 44 42 41 41 42 42 44 38 31 36 43 47 48 48 49 48 47 45 45 46 46 44 44 43 44 45 46 45 45 44 46 45 48 49 51 50 49 47 49 49 49 56 58 59 58 55 57 57 59 63 63 64 64 65 63 65 66 65 64 63 62 58 53 51 51
56 56 56 55 54 53 52 52 52 50 49 49 47 46 45 46 45 42 39 37 36 37 40 42 43 42 42 41 41 37 37 37 39 41 49 48 48 51 47 47 44 44 43 45 45 44 43 44 44 44 44 44 42 42 45 48 47 51 48 49 48 46 48 49 53 58 59 60 59 58 55 55 59 60 61 65 64 63 65 65 63 62 62 62 61 60 50 50
56 56 55 55 54 53 52 51 50 49 49 49 48 48 46 46 46 43 39 38 37 36 38 40 44 43 42 45 40 40 40 38 39 44 49 48 49 49 47 47 45 43 43 44 44 44 44 45 45 42 40 42 42 41 45 46 43 46 49 48 46 46 52 53 55 54 54 54 57 54 48 49 57 58 60 63 64 62 63 62 62 61 60 60 60 61 54 50
56 56 56 55 54 52 51 50 49 49 48 47 48 48 48 47 46 44 40 37 32 33 35 32 39 33 39 28 33 31 40 36 37 45 48 47 51 48 47 44 44 42 43 43 42 42 41 42 41 40 39 38 39 40 42 43 41 43 46 47 46 48 51 52 52 50 49 49 53 55 49 47 56 56 59 61 61 60 62 61 60 59 60 60 60 60 56 48
55 55 55 54 53 51 49 49 49 48 47 46 48 47 45 46 47 43 40 33 26 32 31 26 27 20 29 23 30 19 27 26 33 45 48 49 47 48 44 43 44 44 44 44 43 39 40 39 38 38 37 37 36 34 43 43 42 42 45 41 47 49 51 52 51 48 50 57 54 54 54 49 49 51 54 61 60 60 61 61 60 60 59 60 59 59 59 49
55 55 55 54 53 50 49 49 48 47 47 46 47 46 45 48 47 44 39 32 28 29 19 21 23 18 16 25 20 17 16 20 27 41 48 48 48 45 44 42 42 42 42 40 35 37 37 36 35 34 35 32 30 33 48 43 39 41 41 44 48 49 49 50 49 52 55 52 49 51 52 48 48 51 53 56 56 57 58 60 59 59 59 60 59 58 58 53
55 54 54 53 52 51 50 49 49 46 48 48 47 46 45 44 43 40 37 30 27 22 22 20 22 15 14 23 19 17 18 24 24 41 48 47 47 43 42 42 41 39 38 38 35 34 35 34 33 32 32 31 32 31 31 34 32 36 42 47 49 50 50 49 51 51 52 47 46 50 51 46 48 52 53 55 53 54 55 59 58 58 58 60 60 59 58 55
54 54 53 52 50 50 49 49 48 47 48 48 48 47 46 43 40 36 34 31 27 22 20 22 15 7 11 19 18 17 16 18 19 45 45 43 44 43 41 42 40 39 36 36 35 35 36 42 44 37 32 31 32 32 33 33 34 38 47 47 47 48 50 54 52 49 46 42 43 50 50 47 44 50 52 53 53 53 54 55 57 57 58 59 60 59 58 54
53 53 52 51 47 49 49 47 47 48 48 49 48 46 43 42 40 33 29 25 27 23 20 16 15 10 7 16 15 15 16 17 17 44 42 43 41 43 38 37 39 37 37 35 34 34 33 33 32 32 35 33 33 32 33 33 32 32 36 44 46 46 49 50 51 51 42 41 45 47 49 48 43 47 52 53 53 53 54 55 56 57 58 58 59 59 58 54
53 52 52 50 49 49 47 46 49 49 49 50 48 45 41 36 35 33 30 27 20 19 17 13 16 6 7 14 16 14 13 14 14 43 41 41 38 38 36 35 36 35 35 34 32 33 31 31 32 32 39 32 32 30 29 32 29 30 37 40 40 44 42 37 45 41 41 40 47 46 49 47 45 44 50 52 53 53 54 55 56 57 57 58 58 58 57 54
52 51 51 51 50 48 48 48 49 49 50 49 47 43 39 36 33 31 30 26 21 18 18 16 13 7 7 11 13 14 17 18 13 28 41 39 37 37 36 35 36 36 33 35 32 31 30 30 30 31 31 34 31 28 29 28 29 29 29 32 34 39 38 35 41 45 45 45 46 46 49 46 47 46 47 51 53 53 55 55 55 56 56 57 57 57 56 54
51 51 49 50 50 48 49 53 51 50 49 49 43 40 39 37 37 51 31 26 22 23 20 15 12 8 8 8 10 16 15 16 12 23 38 35 33 35 35 35 35 34 33 36 30 29 28 26 26 27 28 32 31 29 29 34 32 28 29 31 37 41 41 35 41 36 36 37 41 47 45 43 39 38 46 49 52 53 54 55 54 55 56 56 56 56 56 54
50 50 49 50 50 49 49 48 49 49 49 46 41 38 37 37 40 35 31 18 20 22 19 15 11 8 7 8 9 16 15 13 13 26 32 31 30 29 32 33 34 33 33 32 31 31 27 26 26 29 30 32 30 30 30 30 29 27 26 37 36 35 42 32 42 42 43 40 41 44 43 49 39 41 42 47 50 52 54 54 54 54 55 55 55 55 55 53
49 50 49 49 49 50 49 49 48 48 47 44 42 39 35 37 36 36 27 23 21 17 18 14 15 10 10 8 14 11 16 12 9 12 17 29 30 29 30 32 33 33 30 29 31 26 28 24 25 24 27 29 30 31 30 29 28 29 29 36 37 41 40 41 45 46 45 40 41 48 45 40 42 40 39 47 49 51 52 53 52 53 54 54 54 55 55 53
49 50 50 50 50 52 49 49 49 47 46 41 39 37 39 38 38 36 43 22 19 21 18 14 14 12 12 10 13 11 13 15 12 5 8 23 22 29 27 27 33 32 31 29 26 27 25 25 26 26 25 24 29 29 29 29 29 26 32 35 38 41 44 41 36 42 40 37 42 45 42 37 37 38 40 46 46 48 50 51 52 53 54 54 54 55 55 54
49 49 51 50 49 52 50 50 48 47 43 39 38 47 44 38 39 37 36 23 16 18 16 18 19 16 16 14 10 11 13 11 10 6 5 21 21 25 26 26 29 32 31 29 26 28 26 24 24 24 24 21 24 29 27 28 26 24 35 38 36 37 33 41 37 34 38 38 40 38 40 39 38 40 42 41 45 47 49 50 52 53 53 54 54 54 55 53
50 49 47 45 52 51 50 49 46 44 40 38 37 38 42 39 38 34 32 23 20 19 16 21 22 24 19 13 13 13 11 9 8 5 6 16 19 21 21 23 24 30 31 29 26 26 26 21 21 23 21 21 18 25 22 24 26 25 28 28 47 44 46 40 40 45 41 40 36 32 40 34 37 39 42 46 47 48 49 51 52 53 53 53 53 53 54 52
48 45 45 45 50 49 49 45 42 41 39 36 38 38 35 30 28 28 27 25 20 17 21 20 24 22 23 21 16 10 10 9 7 6 5 16 16 18 20 21 20 24 29 29 26 26 24 24 20 20 24 19 18 22 18 24 23 22 20 28 37 40 44 39 44 43 41 38 40 38 36 39 40 41 41 45 47 48 50 52 53 53 53 53 53 53 54 53
50 44 44 44 44 45 44 43 40 38 37 37 36 32 30 28 27 26 28 26 21 21 17 20 20 20 21 19 18 13 9 9 8 7 6 11 12 15 18 20 19 19 25 28 27 23 25 22 20 20 18 18 15 17 18 21 24 21 19 19 33 37 37 35 35 40 44 37 38 38 35 43 43 43 43 45 47 50 51 51 51 52 52 52 52 53 54 55
48 43 42 42 44 44 43 39 38 39 35 34 31 31 30 40 30 28 29 22 22 18 22 20 22 20 21 20 20 22 11 9 10 10 11 8 11 11 15 18 19 17 23 26 26 24 22 26 22 19 19 17 18 18 20 17 17 20 20 24 35 40 38 35 32 38 39 43 44 44 41 40 49 45 46 47 49 50 50 51 52 52 52 53 53 54 55 56
41 41 45 44 45 44 43 41 47 42 32 30 31 29 28 29 29 33 33 23 24 22 22 21 21 20 22 22 21 20 22 16 15 13 10 9 9 12 14 16 17 16 22 24 26 25 39 21 24 24 32 29 20 18 22 22 16 24 21 37 39 39 36 36 36 42 38 43 39 38 40 42 42 50 46 47 50 47 48 51 51 52 51 53 53 54 55 56
44 44 44 44 45 46 40 37 36 36 37 38 35 34 34 34 34 33 34 34 29 23 23 26 28 27 28 29 26 25 25 23 21 19 13 13 8 10 13 14 15 13 15 20 24 30 25 27 20 21 21 21 20 24 26 20 15 15 14 30 36 37 38 40 42 41 37 41 43 35 33 36 45 48 46 48 48 50 48 50 49 48 51 53 54 56 56 56
47 47 45 44 47 44 38 37 38 36 39 34 33 32 35 37 37 36 34 34 33 21 24 27 25 26 26 27 26 26 26 20 23 21 15 13 7 10 14 14 14 12 18 27 50 24 20 28 23 16 17 14 18 19 18 19 15 15 17 29 35 38 38 36 35 40 33 39 42 40 43 44 48 49 46 46 46 49 55 51 51 50 49 53 54 55 56 55
44 43 44 40 41 41 41 41 39 37 36 35 33 35 37 37 37 37 37 30 28 23 20 25 24 23 25 24 25 24 24 23 22 24 32 29 28 31 25 13 14 10 39 53 46 25 28 31 26 26 20 17 21 32 32 27 16 11 12 19 31 37 36 38 39 37 33 40 42 43 39 40 40 42 43 44 48 43 45 50 54 54 59 52 54 56 55 55
47 43 41 40 41 41 39 40 39 38 36 35 36 38 35 36 35 34 34 26 26 24 24 26 24 22 25 24 27 25 26 27 32 33 32 32 33 34 30 25 35 55 62 54 42 19 29 22 23 27 21 17 18 21 19 26 15 13 13 15 28 36 37 37 35 35 40 40 37 45 50 39 38 38 40 44 44 47 46 46 54 61 60 52 54 55 60 55
43 43 43 44 40 37 40 40 40 39 39 38 34 34 33 32 32 31 32 32 30 29 25 29 26 27 24 24 29 29 34 34 35 34 34 33 34 33 31 33 31 45 38 16 29 23 23 15 19 23 21 23 21 19 17 16 15 14 12 13 13 17 33 34 35 38 39 35 34 40 47 38 36 36 38 43 46 47 50 52 53 60 60 57 55 55 55 55
45 45 43 44 42 42 43 41 42 41 38 38 41 37 32 31 29 29 31 31 31 32 29 26 26 30 34 34 35 34 35 34 34 37 35 34 34 34 32 34 34 35 33 22 16 32 18 21 20 18 22 19 17 15 15 14 14 13 12 11 14 15 33 35 34 40 36 36 36 37 46 39 37 38 39 42 46 49 51 57 62 60 58 57 56 56 56 58
47 45 43 45 44 43 43 43 42 41 39 41 36 34 31 31 27 25 30 34 36 33 33 30 31 34 34 35 36 34 37 38 38 37 35 35 34 36 34 39 34 34 34 34 27 22 13 20 41 20 18 16 14 17 14 16 21 12 10 10 11 12 21 31 33 40 39 39 41 38 43 41 39 39 40 42 45 51 58 60 59 59 59 58 57 57 58 59
50 50 49 46 45 44 48 44 43 42 39 37 37 39 39 36 35 32 34 36 34 32 29 29 32 35 36 35 35 34 34 35 38 37 35 36 35 41 37 38 34 32 34 37 36 30 16 20 22 24 15 13 13 11 10 12 12 11 11 11 10 8 15 20 28 39 36 35 38 40 42 41 41 44 44 46 51 56 57 58 59 60 59 58 57 59 60 62
51 51 50 48 44 51 45 44 43 41 39 40 42 40 38 36 37 32 35 35 32 31 30 30 30 34 36 35 35 35 35 35 34 34 34 35 35 35 35 34 33 39 33 39 43 30 23 25 18 20 15 20 12 13 12 16 15 14 15 14 11 11 19 21 28 39 37 35 38 37 37 40 41 47 45 48 51 54 56 58 57 59 59 56 57 60 62 63